This is the latest recevied weather packets stored in our database for station/object NT9G. If no packets are shown the sender has not sent any weather packets the latest 10 day(s).
| Time | Temp. | Humidity | Pressure | Rain* | Wind** | Luminosity | Snow |
|---|---|---|---|---|---|---|---|
| 1777422673 | 16.67° C | 61% | 1012.7 hPa | 0.51 mm | - | - | - |
| 1777422372 | 16.67° C | 61% | 1012.6 hPa | 0.51 mm | - | - | - |
| 1777422072 | 16.67° C | 61% | 1012.9 hPa | 0.51 mm | - | - | - |
| 1777421772 | 16.67° C | 60% | 1013.2 hPa | 0.51 mm | - | - | - |
| 1777421472 | 16.67° C | 59% | 1013.4 hPa | 0.51 mm | - | - | - |
| 1777421171 | 16.67° C | 58% | 1013.6 hPa | 0.51 mm | - | - | - |
| 1777420871 | 17.22° C | 57% | 1013.7 hPa | 0.51 mm | - | - | - |
| 1777420571 | 17.22° C | 57% | 1013.7 hPa | 0.51 mm | - | - | - |
| 1777419970 | 17.22° C | 56% | 1013.7 hPa | 0.51 mm | - | - | - |
| 1777418469 | 17.78° C | 54% | 1014.2 hPa | 0.51 mm | - | - | - |
| 1777418168 | 17.78° C | 54% | 1014.2 hPa | 0.51 mm | - | - | - |
| 1777417868 | 17.78° C | 53% | 1014.3 hPa | 0.51 mm | - | - | - |
| 1777417568 | 17.78° C | 54% | 1014.3 hPa | 0.51 mm | - | - | - |
| 1777417267 | 17.78° C | 53% | 1014.2 hPa | 0.51 mm | - | - | - |
| 1777416967 | 17.78° C | 53% | 1014.4 hPa | 0.51 mm | - | - | - |
| 1777416667 | 17.78° C | 53% | 1014.3 hPa | 0.51 mm | - | - | - |
| 1777416066 | 18.33° C | 51% | 1013.8 hPa | 0.51 mm | - | - | - |
| 1777415766 | 18.33° C | 51% | 1013.8 hPa | 0.51 mm | - | - | - |
| 1777415466 | 18.33° C | 50% | 1013.9 hPa | 0.51 mm | - | - | - |
| 1777415166 | 18.89° C | 48% | 1014 hPa | 0.51 mm | - | - | - |
| 1777414865 | 18.89° C | 49% | 1014.1 hPa | 0.51 mm | - | - | - |
| 1777414565 | 19.44° C | 48% | 1014.2 hPa | 0.51 mm | - | - | - |
| 1777414265 | 18.89° C | 50% | 1014.3 hPa | 0.51 mm | - | - | - |
| 1777413964 | 18.89° C | 50% | 1014.3 hPa | 0.51 mm | - | - | - |
| 1777413664 | 18.33° C | 48% | 1014.2 hPa | 0.51 mm | - | - | - |
* Rain since midnight (hover to see other rain measurements)
** Current wind speed in m/s (hover to see current wind gust speed)